SCP
0 0 0 0 0 0 0 0 0 0 0 0 0 0 0 0 0 0 0 0 0 0 0 0 0 0 0 0 0 -0 -0 -0 -0 -0 0 0 0 0 0 0 0 0 0 0
0 0 0 0 0 0 0 0 0 0 0 0 0 0 0 0 0 0 0 0 0 0 0 0 0 0 0 0 0 -0 -0 -0 -0 0 0 0 0 0 0 0 0 0 0 0
0 0 0 0 0 0 0 0 0 0 0 0 0 0 0 0 0 0 0 0 0 0 0 0 0 0 0 0 0 -0 -0 -0 -0 0 0 0 0 0 0 0 0 0 0 0
0 0 0 0 0 0 0 0 0 0 0 0 0 0 0 0 0 0 0 0 0 0 0 0 0 0 0 0 0 -0 -0 -0 -0 -0 0 0 0 0 0 0 0 0 0 0
0 0 0 0 0 0 0 0 0 0 0 0 0 0 0 0 0 0 0 0 0 0 0 0 0 0 0 0 0 0 -0 -0 -0 0 0 0 0 0 0 0 0 0 0 0
0 0 0 0 0 0 0 0 0 0 0 0 0 0 0 0 0 0 0 0 0 0 0 0 0 0 0 0 0 0 0 -0 0 0 0 0 0 0 0 0 0 0 0 0
0 0 0 0 0 0 0 0 0 0 0 0 0 0 0 0 0 0 0 0 0 0 0 0 0 0 0 0 0 0 0 0 0 0 0 0 0 0 0 0 0 0 0 0
0 0 0 0 0 0 0 0 0 0 0 0 0 0 0 0 0 0 0 0 0 0 0 0 0 0 0 0 0 0 0 0 0 0 0 0 0 0 0 0 0 0 -0 -0
0 0 0 0 0 0 0 0 0 0 0 0 0 0 0 0 0 0 0 0 0 0 0 0 0 0 0 0 0 0 -0 0 0 0 0 0 0 0 -0 0 0 -0 -0 -0
0 0 0 0 0 0 0 0 0 0 0 0 0 0 0 0 0 0 0 0 0 0 0 0 0 -0 -0 -0 -0 -0 -0 -0 0 0 0 0 0 0 -0 -0 0 -0 -0 -0
0 0 0 0 0 0 0 0 0 0 0 0 0 0 0 0 0 0 0 0 0 0 0 0 0 0 -0 -0 0 -0 -0 -0 0 0 0 0 0 0 0 0 -0 -0 -0 -0
0 0 0 0 0 0 0 0 0 0 0 0 0 0 0 0 0 0 0 0 0 0 -0 0 0 0 0 0 0 0 -0 -0 -0 0 0 0 0 0 0 0 0 0 0 0
0 0 0 0 0 0 0 0 0 0 0 0 0 0 0 0 0 0 0 0 0 -0 -0 -0 0 0 0 -0 -0 -0 -0 -0 -0 -0 0 0 -0 0 -0 -0 -0 0 0 0
0 0 0 0 0 0 0 0 0 0 0 0 0 0 0 0 0 0 0 0 0 0 -0 -0 -0 -0 -0 -0 -0 -0 -0 -0 -0 0 0 -0 -0 0 -0 -0 -0 0 0 0
0 0 0 0 0 0 0 0 0 0 0 0 0 0 0 0 0 0 0 0 0 0 0 0 -0 -0 -0 -0 -0 -0 -0 -0 0 0 0 -0 0 0 0 0 0 0 0 0
0 0 0 0 0 0 0 0 0 0 0 0 0 0 0 0 0 0 0 0 0 0 0 0 0 0 0 -0 -0 -0 -0 0 0 0 0 -0 0 0 0 0 0 0 0 0
0 0 0 0 0 0 0 0 0 0 0 0 0 0 0 0 0 0 0 0 0 0 0 0 0 0 0 0 0 0 0 0 0 0 0 0 0 0 0 0 0 0 0 0
0 0 0 0 0 0 0 0 0 0 0 0 0 0 0 0 0 0 0 0 0 0 0 0 0 0 0 0 0 0 0 0 0 0 0 0 0 0 0 0 0 0 0 0
0 0 0 0 0 0 0 0 0 0 0 0 0 0 0 0 0 0 0 0 0 0 0 0 0 0 0 0 0 0 0 0 0 0 0 0 0 0 0 0 0 0 0 0
0 0 0 0 0 0 0 0 0 0 0 0 0 0 0 0 0 0 0 0 0 0 0 0 0 0 0 0 0 0 0 0 0 0 0 0 0 0 0 0 0 0 0 0
0 0 0 0 0 0 0 0 0 0 0 0 0 0 0 0 0 0 0 0 0 0 0 0 0 0 0 0 0 0 0 0 0 0 0 0 0 0 0 0 0 0 0 0
0 0 0 0 0 0 0 0 0 0 0 0 0 0 0 0 0 0 0 0 0 0 0 0 0 0 0 0 0 0 0 0 0 0 0 0 0 0 0 0 0 0 0 0
0 0 0 0 0 0 0 0 0 0 0 0 0 0 0 0 0 0 0 0 0 0 0 0 0 0 0 0 0 0 0 0 0 0 0 0 0 0 0 0 0 0 0 0
0 0 0 0 0 0 0 0 0 0 0 0 0 0 0 0 0 0 0 0 0 0 0 0 0 0 0 0 0 0 0 0 0 0 0 0 0 0 0 0 0 0 0 0
0 0 0 0 0 0 0 0 0 0 0 0 0 0 0 0 0 0 0 0 0 0 0 0 0 0 0 0 0 0 0 0 0 0 0 0 0 0 0 0 0 0 0 0
0 0 0 0 0 0 0 0 0 0 0 0 0 0 0 0 0 0 0 0 0 0 0 0 0 0 0 0 0 0 0 0 0 0 0 0 0 0 0 0 0 0 0 0
0 0 0 0 0 0 0 0 0 0 0 0 0 0 0 0 0 0 0 0 0 0 0 0 0 0 0 0 0 0 0 0 0 0 0 0 0 0 0 0 0 0 0 0
Wind_Speed
2 2 1 1 2 1 1 4 6 6 7 9 9 8 8 8 8 8 8 7 6 6 4 4 3 2 2 3 4 4 4 3 2 1 1 2 2 2 3 3 4 3 3 4
2 2 1 3 3 1 2 3 5 6 3 4 6 6 7 8 8 8 8 7 7 6 6 5 4 3 3 3 3 4 3 2 2 2 2 2 2 2 3 3 3 3 3 3
1 3 2 2 3 0 2 2 6 5 5 8 7 8 9 8 8 8 8 7 7 7 6 5 4 4 4 4 4 4 3 2 2 2 2 1 2 2 2 2 2 2 2 2
1 3 0 5 2 3 5 2 3 5 8 10 9 7 5 6 8 7 7 7 6 6 5 4 3 3 4 4 4 4 3 2 2 2 2 1 2 1 1 1 1 1 2 3
3 1 2 3 1 2 4 1 3 8 9 7 8 6 2 3 6 7 7 7 6 6 5 5 4 4 4 4 3 3 3 3 2 2 2 1 1 0 1 0 1 1 1 2
3 3 3 5 3 3 7 1 2 7 10 9 8 4 4 6 6 6 7 6 6 5 5 5 4 5 5 4 3 3 3 3 2 2 2 2 1 1 1 0 1 1 2 2
3 2 4 5 2 3 3 6 4 7 9 8 6 6 6 8 7 7 7 7 7 7 5 5 4 5 5 4 3 3 3 3 2 2 2 2 1 1 1 1 1 1 2 3
3 2 6 4 2 4 6 4 6 6 7 7 6 7 8 9 9 9 8 7 7 6 5 4 5 6 5 3 3 3 3 2 2 1 1 1 1 1 0 0 1 2 2 3
6 6 6 1 4 4 6 7 5 6 7 9 9 8 9 8 9 8 8 7 6 7 6 4 4 5 5 3 3 3 3 2 1 1 0 0 1 0 0 0 0 1 1 2
3 2 3 4 5 5 6 7 7 8 9 9 9 9 9 8 7 7 7 7 6 7 6 5 4 4 4 4 4 4 3 2 1 1 1 1 0 1 1 1 1 1 1 2
3 3 4 2 5 7 7 9 9 8 8 10 11 9 8 8 8 7 6 5 6 6 7 6 5 4 4 4 4 3 2 2 2 1 1 1 1 1 2 3 4 3 3 2
7 8 7 6 5 8 10 9 10 9 8 8 10 10 8 8 7 7 6 6 6 6 6 6 5 4 4 4 5 4 2 2 2 1 1 1 1 2 4 4 6 6 6 5
7 7 6 7 7 8 9 9 9 10 10 10 8 9 9 7 6 7 6 6 7 7 7 6 5 5 4 4 5 4 3 3 2 2 2 2 2 2 3 5 5 6 7 7
8 8 7 6 7 7 9 9 9 9 9 10 9 9 8 7 6 7 7 7 7 6 6 6 5 5 5 5 5 4 4 4 3 3 3 3 3 3 3 3 3 4 5 7
7 8 8 8 8 9 9 10 10 9 9 9 9 9 9 8 8 7 6 6 6 6 6 6 6 5 5 5 5 4 3 3 3 3 3 3 3 3 3 4 3 4 4 5
7 8 9 10 11 10 10 10 10 10 10 9 9 9 9 9 8 6 6 6 7 6 6 6 6 6 5 5 5 4 4 6 5 3 3 3 3 3 3 3 3 3 4 4
10 9 9 10 10 10 9 9 11 10 10 10 10 10 9 8 7 6 6 6 7 7 6 7 7 6 6 6 5 4 3 4 5 3 3 3 3 4 4 4 4 4 5 6
12 11 12 13 12 10 9 10 10 11 11 10 10 10 9 9 8 7 7 6 5 5 5 6 6 6 6 6 5 4 4 4 3 3 4 4 4 4 4 4 5 6 5 5
10 10 10 10 11 10 10 10 10 10 10 10 10 10 9 9 8 7 6 6 6 6 6 6 8 7 6 6 6 4 4 4 4 4 4 5 5 4 4 5 5 6 5 5
9 10 10 10 10 10 10 9 10 9 9 10 10 9 8 8 7 7 7 6 7 7 6 6 6 6 6 6 6 4 4 5 5 4 4 4 5 5 5 5 6 6 6 6
11 10 10 10 9 9 10 10 10 10 9 10 10 10 9 8 7 7 6 5 6 7 7 8 6 5 5 5 6 4 4 5 5 5 5 5 5 5 6 6 6 6 6 6
10 10 10 10 10 8 8 9 9 10 9 9 9 8 8 7 7 6 7 6 6 8 6 5 5 7 8 7 4 4 5 5 5 5 5 5 5 6 6 6 6 6 6 6
9 9 10 10 10 9 8 8 9 9 9 9 9 9 8 7 6 6 6 6 5 8 7 5 8 11 12 7 5 5 6 6 6 6 6 6 6 6 6 7 6 6 6 6
9 9 9 9 9 9 8 7 7 7 8 8 8 8 7 6 4 5 5 7 9 9 7 7 12 13 11 6 5 6 6 6 6 6 6 6 6 6 6 6 6 6 6 7
9 9 8 9 8 7 7 7 6 5 6 4 5 6 6 6 6 5 5 6 9 9 6 8 12 12 8 5 6 6 6 7 6 6 6 6 6 6 6 6 6 6 6 6
8 7 7 8 7 6 6 5 5 4 5 4 4 4 4 4 5 5 4 5 7 8 7 5 6 8 6 6 7 7 7 7 7 7 7 7 7 7 6 7 8 6 6 5
7 6 5 5 4 5 5 5 5 5 5 5 5 4 5 4 4 4 5 4 4 5 5 5 5 5 6 6 7 7 7 7 7 7 7 7 6 6 6 8 6 6 5 5
Wind_Direction
204 233 190 295 292 337 129 168 168 188 178 187 180 170 158 148 143 143 148 153 155 152 151 148 146 147 143 139 135 132 126 119 123 112 89 63 52 46 41 40 40 33 32 17
359 344 28 345 331 33 87 107 128 131 170 172 151 139 143 149 153 156 160 163 160 157 155 157 157 152 140 133 130 123 124 127 132 105 81 73 66 55 43 33 27 30 29 14
278 304 32 337 291 141 99 113 146 172 184 145 141 157 165 163 161 163 164 159 159 159 160 162 163 153 148 147 135 124 125 128 128 113 91 92 90 64 46 26 30 17 6 10
145 31 257 250 260 127 111 92 127 130 145 155 157 158 158 160 161 161 159 156 154 152 153 157 154 146 145 142 138 139 139 141 143 131 121 105 90 65 13 357 16 355 347 352
115 124 270 288 291 155 123 76 127 133 141 136 123 98 99 170 159 162 159 154 153 153 150 146 148 147 134 133 130 131 144 153 159 152 138 123 117 312 320 359 349 326 315 341
127 143 224 252 279 129 101 110 193 142 146 146 135 150 206 177 153 148 144 144 146 143 135 141 152 142 131 133 133 153 164 163 162 152 149 170 202 242 301 331 276 307 323 328
148 176 253 261 275 93 130 215 182 154 155 157 169 184 167 151 146 147 145 147 146 144 145 156 151 136 136 143 168 185 162 147 144 152 174 198 209 227 250 296 326 328 328 321
144 164 247 268 117 158 195 164 140 144 154 148 138 130 135 143 144 143 143 145 146 144 147 149 140 135 140 166 186 161 143 139 150 177 201 176 178 254 308 349 349 328 337 327
172 201 225 194 155 160 141 131 136 142 144 136 132 136 137 140 142 144 145 146 146 145 143 144 146 145 155 182 164 145 138 147 177 203 247 154 167 211 329 336 334 317 334 313
114 181 152 127 118 118 126 130 135 135 134 134 135 138 135 138 140 141 143 147 147 144 146 158 166 163 171 172 158 147 153 175 190 193 276 314 289 206 193 222 239 280 283 280
122 151 106 105 132 129 115 116 122 128 135 141 136 137 139 142 146 149 148 148 148 150 158 171 174 174 181 172 155 154 169 186 193 203 225 271 290 258 231 235 214 208 221 218
189 191 161 179 164 135 128 136 140 135 131 138 141 144 141 146 150 150 150 148 148 155 163 172 174 180 189 178 164 161 176 198 205 212 229 233 264 307 291 258 257 237 228 220
164 163 150 155 150 136 139 145 145 143 144 144 144 143 143 145 151 152 155 158 164 170 173 174 174 185 194 182 171 173 188 203 209 213 223 233 234 239 280 304 293 270 256 251
133 123 120 140 149 141 137 139 137 136 137 142 142 141 140 139 146 155 167 173 171 167 169 173 179 197 201 185 178 186 198 209 208 217 225 232 235 237 234 243 277 290 281 260
143 139 143 142 134 134 133 131 131 136 138 140 144 147 149 151 161 171 173 168 161 165 174 179 188 204 201 184 183 196 206 220 224 230 232 235 239 241 240 240 247 261 283 288
140 131 133 138 143 145 142 141 145 152 152 151 154 159 162 163 165 168 169 165 164 179 188 186 194 203 193 185 189 200 217 230 227 230 240 248 246 242 244 245 251 255 259 262
142 153 154 152 154 156 158 158 159 158 157 158 162 162 158 156 159 168 178 179 179 187 189 189 200 203 193 191 192 202 213 232 239 241 238 243 246 243 241 237 242 249 252 251
164 168 166 162 162 162 162 159 158 158 160 163 159 155 158 164 173 183 185 180 177 187 199 200 201 198 197 197 198 205 208 218 227 239 244 245 248 248 245 239 242 250 258 264
150 153 158 160 159 159 159 159 159 161 161 158 159 164 170 175 179 181 176 173 180 197 215 209 202 197 202 207 202 205 211 223 233 240 245 252 257 255 251 248 248 249 251 251
155 154 155 154 151 149 152 155 154 154 159 159 160 163 170 179 180 178 176 187 201 205 202 198 197 201 207 213 207 205 215 226 234 243 246 247 248 253 254 252 250 250 250 247
161 156 153 151 151 151 153 153 153 157 160 161 163 171 179 185 182 175 176 203 226 210 198 199 200 207 211 211 207 208 217 226 233 239 244 246 248 251 254 253 252 252 249 247
159 153 150 149 146 146 150 151 154 157 160 165 169 170 171 179 185 187 196 205 213 203 195 199 205 211 213 212 210 218 229 235 239 241 243 245 245 248 252 253 251 252 251 248
150 148 147 149 151 151 147 150 155 157 163 170 173 175 179 185 184 184 210 219 203 201 197 206 212 215 216 215 218 224 232 239 242 245 247 246 245 246 249 253 252 252 253 252
146 147 147 146 140 140 149 161 162 165 169 174 180 181 178 182 200 208 206 204 202 201 206 214 215 217 216 217 223 229 235 240 242 245 250 252 253 253 253 255 258 256 254 256
145 144 143 142 146 158 166 163 160 165 166 172 182 185 183 183 191 206 203 202 202 200 213 221 220 220 217 221 226 232 237 242 245 246 248 252 255 257 258 255 254 256 255 253
143 149 155 161 164 165 162 159 163 172 172 180 194 198 194 193 194 194 196 203 201 202 209 217 215 213 217 224 231 235 239 245 247 245 247 248 251 254 258 259 259 255 252 252
138 140 143 147 157 161 160 163 169 179 181 180 193 201 197 191 187 190 194 198 199 205 212 214 210 209 215 225 232 238 241 244 245 245 247 249 250 252 256 258 258 256 255 255